Powrót do katalogu

STARLINK-37018

AktywnyŁącznośćSSO
NORAD 68103·PAYLOAD·🇺🇸 United States

Wystrzelony Mar 8, 2026 z Vandenberg Space Force Base

Loading…

Następne Przeloty (najbliższe 24 godziny)

TLE

ŚwieżeSource: CelesTrak SupGP

Epoka: Sep 14, 2026, 21:37 UTC

1 68103C 26044C   26257.90118056 -.00013936  00000+0 -43259-3 0  2572
2 68103  97.2849 216.8657 0002020  88.3353 334.4551 15.33445935    16

Śledź STARLINK-37018 w czasie rzeczywistym z AllMySat

Download on the App Store